When you browse on this site, cookies collect data to enhance your experience and personalize the content and advertising you see.
Visit our Privacy Policy to learn more. By continuing to use the site, you agree to this use of cookies and data.

Hourly Weather Kalush

Today, 15 August, Saturday

Time Temperature Precipitation Wind Pressure Humidity
00:00 +15°C° 0 mm 2 mps 734 mmHg 87%
01:00 +15°C° 0 mm 2 mps 734 mmHg 88%
02:00 +15°C° 0 mm 2 mps 734 mmHg 90%
03:00 +15°C° 0 mm 2 mps 734 mmHg 90%
04:00 +14°C° 0 mm 2 mps 734 mmHg 90%
05:00 +14°C° 0 mm 2 mps 733 mmHg 89%
06:00 +15°C° 0 mm 2 mps 734 mmHg 84%
07:00 +17°C° 0 mm 3 mps 734 mmHg 79%
08:00 +18°C° 0 mm 3 mps 734 mmHg 75%
09:00 +19°C° 0 mm 4 mps 734 mmHg 71%
10:00 +21°C° 0 mm 4 mps 734 mmHg 67%
11:00 +22°C° 0 mm 4 mps 734 mmHg 64%
12:00 +23°C° 0 mm 5 mps 734 mmHg 63%
13:00 +25°C° 0 mm 5 mps 734 mmHg 63%
14:00 +25°C° 0 mm 5 mps 734 mmHg 63%
15:00 +25°C° 0.1 mm 5 mps 734 mmHg 65%
16:00 +25°C° 0.1 mm 5 mps 733 mmHg 67%
17:00 +25°C° 0.1 mm 4 mps 733 mmHg 69%
18:00 +22°C° 0.1 mm 4 mps 733 mmHg 73%
19:00 +21°C° 0.1 mm 3 mps 733 mmHg 76%
20:00 +20°C° 0.1 mm 3 mps 733 mmHg 80%
21:00 +19°C° 0 mm 3 mps 733 mmHg 78%
22:00 +19°C° 0 mm 3 mps 734 mmHg 77%
23:00 +18°C° 0 mm 3 mps 734 mmHg 75%

Tomorrow, 16 August, Sunday

Time Temperature Precipitation Wind Pressure Humidity
00:00 +18°C° 0 mm 3 mps 734 mmHg 77%
01:00 +17°C° 0 mm 3 mps 734 mmHg 79%
02:00 +16°C° 0 mm 3 mps 733 mmHg 81%
03:00 +15°C° 0 mm 2 mps 733 mmHg 80%
04:00 +15°C° 0 mm 2 mps 733 mmHg 80%
05:00 +14°C° 0 mm 2 mps 733 mmHg 80%
06:00 +16°C° 0 mm 2 mps 734 mmHg 78%
07:00 +17°C° 0 mm 3 mps 734 mmHg 77%
08:00 +18°C° 0 mm 3 mps 734 mmHg 76%
09:00 +20°C° 0 mm 4 mps 734 mmHg 73%
10:00 +21°C° 0 mm 4 mps 735 mmHg 69%
11:00 +23°C° 0 mm 5 mps 735 mmHg 66%
12:00 +25°C° 0 mm 5 mps 735 mmHg 64%
13:00 +25°C° 0 mm 5 mps 735 mmHg 62%
14:00 +26°C° 0 mm 5 mps 735 mmHg 59%
15:00 +26°C° 0 mm 5 mps 735 mmHg 60%
16:00 +26°C° 0 mm 5 mps 734 mmHg 61%
17:00 +26°C° 0 mm 5 mps 734 mmHg 62%
18:00 +23°C° 0 mm 4 mps 734 mmHg 68%
19:00 +22°C° 0 mm 4 mps 734 mmHg 73%
20:00 +20°C° 0 mm 3 mps 734 mmHg 78%
21:00 +19°C° 0 mm 3 mps 734 mmHg 79%
22:00 +18°C° 0 mm 3 mps 734 mmHg 81%
23:00 +18°C° 0 mm 3 mps 735 mmHg 83%

Day after tomorrow, 17 August, Monday

Time Temperature Precipitation Wind Pressure Humidity
00:00 +17°C° 0 mm 2 mps 734 mmHg 83%
01:00 +17°C° 0 mm 2 mps 734 mmHg 83%
02:00 +16°C° 0 mm 2 mps 734 mmHg 83%
03:00 +16°C° 0 mm 2 mps 734 mmHg 83%
04:00 +16°C° 0 mm 2 mps 734 mmHg 83%
05:00 +16°C° 0 mm 2 mps 734 mmHg 83%
06:00 +17°C° 0 mm 2 mps 734 mmHg 80%
07:00 +19°C° 0 mm 2 mps 734 mmHg 76%
08:00 +20°C° 0 mm 2 mps 734 mmHg 73%
09:00 +23°C° 0 mm 2 mps 734 mmHg 68%
10:00 +25°C° 0 mm 2 mps 734 mmHg 63%
11:00 +27°C° 0 mm 2 mps 734 mmHg 59%
12:00 +27°C° 0.8 mm 2 mps 734 mmHg 59%
13:00 +28°C° 0.8 mm 2 mps 734 mmHg 60%
14:00 +28°C° 0.8 mm 2 mps 733 mmHg 61%
15:00 +28°C° 1.3 mm 1 mps 733 mmHg 64%
16:00 +27°C° 1.3 mm 1 mps 733 mmHg 67%
17:00 +27°C° 1.3 mm 1 mps 732 mmHg 70%
18:00 +26°C° 0.3 mm 1 mps 732 mmHg 73%
19:00 +24°C° 0.3 mm 1 mps 732 mmHg 76%
20:00 +22°C° 0.3 mm 1 mps 732 mmHg 80%
21:00 +22°C° 0 mm 1 mps 732 mmHg 81%
22:00 +21°C° 0 mm 1 mps 732 mmHg 83%
23:00 +20°C° 0 mm 1 mps 732 mmHg 85%

18 August, Tuesday

Time Temperature Precipitation Wind Pressure Humidity
00:00 +20°C° 0 mm 1 mps 732 mmHg 85%
01:00 +20°C° 0 mm 1 mps 732 mmHg 85%
02:00 +19°C° 0 mm 1 mps 732 mmHg 86%
03:00 +19°C° 0 mm 1 mps 731 mmHg 86%
04:00 +19°C° 0 mm 1 mps 731 mmHg 86%
05:00 +19°C° 0 mm 1 mps 731 mmHg 85%
06:00 +20°C° 0 mm 1 mps 731 mmHg 82%
07:00 +22°C° 0 mm 1 mps 731 mmHg 79%
08:00 +23°C° 0 mm 1 mps 731 mmHg 75%
09:00 +25°C° 0 mm 2 mps 731 mmHg 67%
10:00 +27°C° 0 mm 2 mps 731 mmHg 59%
11:00 +29°C° 0 mm 3 mps 731 mmHg 51%
12:00 +30°C° 0 mm 3 mps 731 mmHg 50%
13:00 +30°C° 0 mm 3 mps 730 mmHg 48%
14:00 +31°C° 0 mm 3 mps 730 mmHg 47%
15:00 +30°C° 0 mm 3 mps 730 mmHg 51%
16:00 +29°C° 0 mm 2 mps 730 mmHg 55%
17:00 +29°C° 0 mm 2 mps 729 mmHg 59%
18:00 +27°C° 0.1 mm 2 mps 729 mmHg 64%
19:00 +25°C° 0.1 mm 2 mps 729 mmHg 70%
20:00 +23°C° 0.1 mm 1 mps 729 mmHg 75%
21:00 +22°C° 0.5 mm 1 mps 729 mmHg 79%
22:00 +21°C° 0.5 mm 1 mps 729 mmHg 83%
23:00 +21°C° 0.5 mm 1 mps 730 mmHg 87%

19 August, Wednesday

Time Temperature Precipitation Wind Pressure Humidity
00:00 +20°C° 0.2 mm 1 mps 730 mmHg 90%
01:00 +20°C° 0.2 mm 1 mps 730 mmHg 92%
02:00 +18°C° 0.2 mm 2 mps 729 mmHg 94%
03:00 +18°C° 0 mm 2 mps 729 mmHg 95%
04:00 +18°C° 0 mm 2 mps 729 mmHg 95%
05:00 +19°C° 0 mm 1 mps 729 mmHg 95%
06:00 +20°C° 0 mm 1 mps 729 mmHg 92%
07:00 +21°C° 0 mm 1 mps 730 mmHg 88%
08:00 +22°C° 0 mm 1 mps 730 mmHg 85%
09:00 +23°C° 0.1 mm 1 mps 730 mmHg 79%
10:00 +24°C° 0.1 mm 1 mps 730 mmHg 74%
11:00 +25°C° 0.1 mm 2 mps 730 mmHg 68%
12:00 +26°C° 0.3 mm 1 mps 730 mmHg 67%
13:00 +26°C° 0.3 mm 1 mps 730 mmHg 65%
14:00 +27°C° 0.3 mm 1 mps 729 mmHg 64%
15:00 +26°C° 1.4 mm 1 mps 729 mmHg 67%
16:00 +26°C° 1.4 mm 1 mps 729 mmHg 69%
17:00 +24°C° 1.4 mm 0 mps 729 mmHg 72%
18:00 +22°C° 0.3 mm 0 mps 729 mmHg 76%
19:00 +21°C° 0.3 mm 0 mps 729 mmHg 79%
20:00 +19°C° 0.3 mm 0 mps 729 mmHg 82%
21:00 +19°C° 0.1 mm 0 mps 729 mmHg 84%
22:00 +18°C° 0.1 mm 0 mps 729 mmHg 86%
23:00 +17°C° 0.1 mm 0 mps 729 mmHg 88%

20 August, Thursday

Time Temperature Precipitation Wind Pressure Humidity
00:00 +19°C° 0.2 mm 1 mps 729 mmHg 88%
01:00 +19°C° 0.2 mm 1 mps 729 mmHg 89%
02:00 +19°C° 0.2 mm 1 mps 729 mmHg 90%
03:00 +18°C° 0.2 mm 1 mps 729 mmHg 91%
04:00 +18°C° 0.2 mm 1 mps 729 mmHg 91%
05:00 +18°C° 0.2 mm 1 mps 729 mmHg 92%
06:00 +19°C° 0.2 mm 1 mps 730 mmHg 90%
07:00 +20°C° 0.2 mm 1 mps 730 mmHg 87%
08:00 +21°C° 0.2 mm 1 mps 730 mmHg 85%
09:00 +22°C° 0.7 mm 1 mps 731 mmHg 81%
10:00 +24°C° 0.7 mm 2 mps 731 mmHg 77%
11:00 +25°C° 0.7 mm 2 mps 731 mmHg 73%
12:00 +25°C° 0.3 mm 2 mps 731 mmHg 67%
13:00 +26°C° 0.3 mm 2 mps 731 mmHg 62%
14:00 +27°C° 0.3 mm 2 mps 731 mmHg 57%
15:00 +27°C° 0.1 mm 2 mps 731 mmHg 59%
16:00 +27°C° 0.1 mm 2 mps 731 mmHg 60%
17:00 +26°C° 0.1 mm 2 mps 731 mmHg 62%
18:00 +25°C° 0.2 mm 2 mps 732 mmHg 68%
19:00 +23°C° 0.2 mm 2 mps 732 mmHg 74%
20:00 +21°C° 0.2 mm 1 mps 732 mmHg 80%
21:00 +21°C° 0 mm 1 mps 732 mmHg 82%
22:00 +19°C° 0 mm 2 mps 733 mmHg 85%
23:00 +18°C° 0 mm 2 mps 733 mmHg 88%
Show more